Weather History for Montreal Mirabel, QC

Change the Weather History Date:

Thursday, August 21, 2014

  Actual Average Record
Temperature  
Mean Temperature 68 °F -  
Max Temperature 73 °F 74 °F 86 °F (2003)
Min Temperature 64 °F 54 °F 46 °F (2007)
Cooling Degree Days 4    
Growing Degree Days 18 (Base 50)    
Moisture  
Dew Point 60 °F    
Average Humidity 78    
Maximum Humidity 88    
Minimum Humidity 68    
Precipitation  
Precipitation 0.00 in - - ()
Sea Level Pressure  
Sea Level Pressure 30.04 in    
Wind  
Wind Speed 5 mph ()    
Max Wind Speed 13 mph    
Max Gust Speed 17 mph    
Visibility 15.0 miles    
Events Rain    
Averages and records for this station are not official NWS values.
T = Trace of Precipitation, MM = Missing Value Source: Averaged Metar Reports

Daily Weather History Graph

Daily Weather History Graph

Search for Another Location

Airport:

Trip Planner

Search our weather history database for the weather conditions in past years. The results will help you decide how hot, cold, wet, or windy it might be!

Date:

Astronomy

Aug. 21, 2014 Rise Set
Actual Time 6:03 AM EDT 7:53 PM EDT
Civil Twilight 5:31 AM EDT 8:25 PM EDT
Nautical Twilight 4:53 AM EDT 9:04 PM EDT
Astronomical Twilight 4:10 AM EDT 9:46 PM EDT
Moon 2:26 AM EDT (8/21) 5:25 PM EDT (8/21)
Length of Visible Light 14h 53m
Length of Day
13h 50m
Waning Crescent, 13% of the Moon is Illuminated
Aug 21
Waning Crescent
Aug 25
New
Sep 2
First Quarter
Sep 8
Full
Sep 15
Last Quarter

Hourly Weather History & Observations

Time (EDT) Temp. Dew Point Humidity Pressure Visibility Wind Dir Wind Speed Gust Speed Precip Events Conditions
12:00 AM 66.2 °F 60.8 °F 83% 30.02 in 25.0 mi ENE 3.5 mph - N/A   Mostly Cloudy
1:00 AM 66.2 °F 60.8 °F 83% 30.02 in 25.0 mi ENE 3.5 mph - N/A   Mostly Cloudy
2:00 AM 66.2 °F 60.8 °F 83% 30.01 in 25.0 mi NE 5.8 mph - N/A   Overcast
3:00 AM 66.2 °F 60.8 °F 83% 30.01 in 25.0 mi NE 4.6 mph - N/A   Overcast
4:00 AM 64.4 °F 60.8 °F 88% 30.02 in 25.0 mi ENE 3.5 mph - N/A   Overcast
5:00 AM 64.4 °F 59.0 °F 83% 30.02 in 25.0 mi NE 4.6 mph - N/A   Overcast
6:00 AM 64.4 °F 59.0 °F 83% 30.03 in 25.0 mi ENE 4.6 mph - N/A   Unknown
7:00 AM 64.4 °F 59.0 °F 83% 30.04 in 25.0 mi ENE 5.8 mph - N/A   Overcast
8:00 AM 64.4 °F 59.0 °F 83% 30.05 in 30.0 mi ENE 6.9 mph - N/A   Overcast
9:00 AM 64.4 °F 60.8 °F 88% 30.06 in 30.0 mi NE 6.9 mph - N/A   Overcast
9:17 AM 66.2 °F 60.8 °F 83% 30.06 in 25.0 mi NE 5.8 mph - N/A Rain Light Rain Showers
10:00 AM 68.0 °F 60.8 °F 78% 30.06 in 25.0 mi NE 5.8 mph - N/A   Overcast
11:00 AM 68.0 °F 62.6 °F 83% 30.06 in 15.0 mi ENE 9.2 mph - N/A   Overcast
12:00 PM 69.8 °F 62.6 °F 78% 30.05 in 25.0 mi ENE 6.9 mph - N/A   Overcast
1:00 PM 71.6 °F 62.6 °F 73% 30.05 in 25.0 mi East 10.4 mph 17.3 mph N/A   Overcast
2:00 PM 73.4 °F 64.4 °F 73% 30.04 in 15.0 mi ESE 9.2 mph - N/A   Mostly Cloudy
3:00 PM 71.6 °F 64.4 °F 78% 30.03 in 25.0 mi ESE 6.9 mph - N/A   Overcast
4:00 PM 71.6 °F 60.8 °F 69% 30.04 in 25.0 mi East 10.4 mph - N/A   Overcast
5:00 PM 71.6 °F 60.8 °F 69% 30.05 in 45.0 mi East 12.7 mph - N/A   Overcast
6:00 PM 69.8 °F 59.0 °F 68% 30.06 in 45.0 mi East 4.6 mph - N/A   Overcast
7:00 PM 68.0 °F 59.0 °F 73% 30.06 in 45.0 mi East 3.5 mph - N/A   Overcast
8:00 PM 68.0 °F 59.0 °F 73% 30.05 in 25.0 mi NE 4.6 mph - N/A   Mostly Cloudy
9:00 PM 66.2 °F 59.0 °F 78% 30.06 in 25.0 mi East 5.8 mph - N/A   Mostly Cloudy
10:00 PM 66.2 °F 57.2 °F 73% 30.06 in 25.0 mi ENE 2.3 mph - N/A   Overcast
11:00 PM 66.2 °F 57.2 °F 73% 30.06 in 25.0 mi East 8.1 mph - N/A   Mostly Cloudy